Weather History for Lafayette, IN

Change the Weather History Date:

Friday, September 12, 2014

  Actual Average Record
Temperature  
Mean Temperature 53 °F 68 °F  
Max Temperature 57 °F 80 °F 90 °F (2005)
Min Temperature 48 °F 56 °F 39 °F (1968)
Degree Days  
Heating Degree Days 12 1  
Month to date heating degree days 24 11  
Since 1 July heating degree days 48 17  
Cooling Degree Days 0 4  
Month to date cooling degree days 56 66  
Year to date cooling degree days 732 918  
Growing Degree Days 2 (Base 50)    
Moisture  
Dew Point 50 °F    
Average Humidity 89    
Maximum Humidity 100    
Minimum Humidity 77    
Precipitation  
Precipitation 0.01 in 0.09 in 1.39 in (1961)
Month to date precipitation 2.62 1.09  
Year to date precipitation 27.94 26.64  
Sea Level Pressure  
Sea Level Pressure 30.24 in    
Wind  
Wind Speed 7 mph (North)    
Max Wind Speed 17 mph    
Max Gust Speed 23 mph    
Visibility 9 miles    
Events Rain    
T = Trace of Precipitation, MM = Missing Value Source: NWS Daily Summary

Daily Weather History Graph

Daily Weather History Graph

Search for Another Location

Airport:

Trip Planner

Search our weather history database for the weather conditions in past years. The results will help you decide how hot, cold, wet, or windy it might be!

Date:

Astronomy

Sep. 12, 2014 Rise Set
Actual Time 7:25 AM EDT 8:01 PM EDT
Civil Twilight 6:58 AM EDT 8:28 PM EDT
Nautical Twilight 6:25 AM EDT 9:01 PM EDT
Astronomical Twilight 5:52 AM EDT 9:34 PM EDT
Moon 10:20 PM EDT (9/12) 11:29 AM EDT (9/12)
Length of Visible Light 13h 30m
Length of Day
12h 35m
Waning Gibbous, 83% of the Moon is Illuminated
Sep 12
Waning Gibbous
Sep 15
Last Quarter
Sep 24
New
Oct 1
First Quarter
Oct 8
Full

Hourly Weather History & Observations

Time (EDT) Temp. Dew Point Humidity Pressure Visibility Wind Dir Wind Speed Gust Speed Precip Events Conditions
12:44 AM 52.0 °F 50.0 °F 93% 30.25 in 10.0 mi NNW 8.1 mph - N/A   Overcast
12:54 AM 52.0 °F 48.9 °F 89% 30.26 in 10.0 mi NNW 5.8 mph - N/A   Overcast
1:09 AM 52.0 °F 48.9 °F 89% 30.25 in 10.0 mi NNW 8.1 mph - N/A   Overcast
1:29 AM 51.1 °F 50.0 °F 96% 30.25 in 10.0 mi NNW 6.9 mph - N/A   Overcast
1:39 AM 51.1 °F 50.0 °F 96% 30.25 in 7.0 mi NNW 5.8 mph - N/A   Overcast
1:54 AM 51.1 °F 48.9 °F 92% 30.25 in 9.0 mi North 6.9 mph - N/A   Overcast
2:42 AM 51.1 °F 48.9 °F 92% 30.24 in 8.0 mi NNW 4.6 mph - N/A   Overcast
2:54 AM 51.1 °F 48.9 °F 92% 30.25 in 8.0 mi NNW 6.9 mph - N/A   Overcast
3:54 AM 50.0 °F 48.9 °F 96% 30.24 in 3.0 mi North 6.9 mph - N/A   Overcast
4:14 AM 50.0 °F 48.9 °F 96% 30.24 in 6.0 mi North 4.6 mph - N/A   Overcast
5:54 AM 50.0 °F 48.0 °F 93% 30.25 in 7.0 mi North 4.6 mph - N/A   Overcast
6:54 AM 50.0 °F 48.9 °F 96% 30.25 in 7.0 mi NNE 4.6 mph - N/A   Overcast
7:12 AM 48.9 °F 48.0 °F 97% 30.24 in 7.0 mi Calm Calm - N/A   Mostly Cloudy
7:54 AM 48.9 °F 48.0 °F 97% 30.24 in 5.0 mi North 3.5 mph - N/A   Scattered Clouds
8:04 AM 50.0 °F 48.9 °F 96% 30.24 in 5.0 mi Variable 3.5 mph - N/A   Mostly Cloudy
8:49 AM 51.8 °F 50.0 °F 94% 30.26 in 7.0 mi NNE 4.6 mph - N/A   Overcast
8:54 AM 52.0 °F 50.0 °F 93% 30.27 in 7.0 mi NNE 6.9 mph - N/A   Overcast
9:54 AM 53.1 °F 50.0 °F 89% 30.28 in 10.0 mi ENE 8.1 mph - N/A   Overcast
10:45 AM 55.0 °F 51.1 °F 86% 30.28 in 10.0 mi NNE 8.1 mph - N/A   Overcast
10:54 AM 55.0 °F 51.1 °F 86% 30.29 in 10.0 mi NE 9.2 mph - N/A   Overcast
11:11 AM 55.0 °F 51.1 °F 86% 30.28 in 10.0 mi NNE 8.1 mph - N/A   Overcast
11:25 AM 55.0 °F 50.0 °F 83% 30.28 in 10.0 mi NNE 8.1 mph - N/A   Overcast
11:54 AM 55.9 °F 50.0 °F 80% 30.28 in 10.0 mi NNE 8.1 mph - N/A   Overcast
12:11 PM 55.9 °F 50.0 °F 80% 30.27 in 10.0 mi NNE 9.2 mph - N/A   Overcast
12:40 PM 55.9 °F 50.0 °F 80% 30.27 in 10.0 mi NNE 10.4 mph - N/A   Overcast
12:54 PM 57.0 °F 50.0 °F 77% 30.27 in 10.0 mi NNE 6.9 mph - N/A   Overcast
1:23 PM 55.9 °F 50.0 °F 80% 30.25 in 10.0 mi NE 8.1 mph - N/A   Overcast
1:54 PM 57.0 °F 50.0 °F 77% 30.25 in 10.0 mi North 9.2 mph - N/A   Overcast
2:54 PM 55.0 °F 51.1 °F 86% 30.24 in 10.0 mi ENE 8.1 mph - N/A   Overcast
3:54 PM 55.9 °F 51.1 °F 84% 30.22 in 10.0 mi ENE 10.4 mph - N/A   Overcast
4:20 PM 57.0 °F 51.1 °F 81% 30.21 in 10.0 mi NNE 9.2 mph - N/A   Overcast
4:54 PM 57.0 °F 51.1 °F 81% 30.21 in 10.0 mi ENE 8.1 mph - N/A   Overcast
5:52 PM 55.4 °F 50.0 °F 82% 30.19 in 10.0 mi NE 8.1 mph - N/A   Overcast
5:54 PM 55.9 °F 50.0 °F 80% 30.19 in 10.0 mi NNE 8.1 mph - N/A   Overcast
6:54 PM 55.9 °F 50.0 °F 80% 30.20 in 10.0 mi NNE 8.1 mph - N/A   Overcast
7:13 PM 55.0 °F 50.0 °F 83% 30.19 in 10.0 mi NE 6.9 mph - N/A   Overcast
7:54 PM 55.0 °F 50.0 °F 83% 30.18 in 10.0 mi NE 5.8 mph - N/A   Overcast
8:54 PM 55.0 °F 50.0 °F 83% 30.20 in 10.0 mi NE 4.6 mph - N/A   Overcast
9:54 PM 55.0 °F 50.0 °F 83% 30.22 in 10.0 mi Calm Calm - N/A   Overcast
10:54 PM 54.0 °F 52.0 °F 93% 30.22 in 10.0 mi West 3.5 mph - N/A   Overcast
11:17 PM 54.0 °F 52.0 °F 93% 30.22 in 10.0 mi WNW 4.6 mph - 0.00 in Rain Light Rain
11:30 PM 52.0 °F 50.0 °F 93% 30.22 in 4.0 mi NW 10.4 mph - 0.00 in Rain Light Rain
11:49 PM 51.8 °F 51.8 °F 100% 30.22 in 4.0 mi NW 11.5 mph - 0.01 in Rain Light Rain
11:54 PM 51.1 °F 50.0 °F 96% 30.23 in 4.0 mi NW 13.8 mph 19.6 mph 0.01 in Rain Light Rain